Regional Weather Roundup
Issued by NWS

Home | Current Version | Previous Version | Text Only | Print | Product List | Glossary On
Versions: 1 2 3 4 5 6 7 8 9 10 11 12 13 14 15 16 17 18 19 20 21 22 23 24 25 26 27 28 29 30 31 32 33 34 35 36 37 38 39 40 41 42 43 44 45 46 47 48 49 50
000
ASUS44 KMEG 020610
RWRTN
TENNESSEE HOURLY STATE WEATHER ROUNDUP
NATIONAL WEATHER SERVICE MEMPHIS TN
100 AM CDT THU APR 02 2015

TNZ002-004-019-021-049-052-054-088>092-020700-
WEST TENNESSEE

CITY           SKY/WX    TMP DP  RH WIND       PRES   REMARKS
MEMPHIS INTL   CLOUDY    71  58  63 S13       29.95F
NWS MEMPHIS      N/A     69 N/A N/A MISG        N/A
JACKSON        CLOUDY    65  59  81 S9        29.96F
DYERSBURG      CLOUDY    64  50  59 S8        29.94F
UNION CITY     CLEAR     63  61  94 SE9       29.92F
PARIS          CLEAR     63  54  72 S8        29.96F
HUNTINGDON     CLOUDY    62  57  83 S7        29.96F
LEXINGTON      PTCLDY    63  55  77 S3        29.98S
SAVANNAH       CLEAR     63  61  94 SE7       29.99F
$$

TNZ008-025-027-028-033-062-065-066-020700-
NORTH MIDDLE TENNESSEE

CITY           SKY/WX    TMP DP  RH WIND       PRES   REMARKS
NASHVILLE      PTCLDY    63  36  36 SE7       29.99F
CLARKSVILLE    CLOUDY    65  36  34 S6        29.97F
SMYRNA         PTCLDY    54  43  66 SE7       30.00F
COOKEVILLE     CLEAR     54  36  50 CALM        N/A
CROSSVILLE     CLEAR     58  25  28 S3        30.09F
$$

TNZ061-075-076-078-094-096-097-020700-
SOUTH MIDDLE TENNESSEE

CITY           SKY/WX    TMP DP  RH WIND       PRES   REMARKS
FAYETTEVILLE   PTCLDY    63  48  59 S7        30.03F
TULLAHOMA      CLEAR     61  41  48 CALM      30.05S
WINCHESTER     PTCLDY    59  46  63 SE5       30.05S
MCMINNVILLE    CLEAR     63  39  42 VRB3      30.03F
COLUMBIA       MOCLDY    64  57  77 CALM      29.99S
SHELBYVILLE    CLEAR     63  45  51 SE8       30.03F
$$

TNZ017-018-042-046-047-020700-
NORTHEAST TENNESSEE

CITY           SKY/WX    TMP DP  RH WIND       PRES   REMARKS
TRI CITIES     PTCLDY    42  32  67 N3        30.15S
ELIZABETHTON   CLEAR     46  30  53 CALM      30.16R
$$

TNZ012-013-036-069-073-074-020700-
CENTRAL EAST TENNESSEE

CITY           SKY/WX    TMP DP  RH WIND       PRES   REMARKS
KNOXVILLE      PTCLDY    51  35  54 CALM      30.09F
OAK RIDGE      PTCLDY    48  37  65 CALM      30.11F
GATLINBURG     CLEAR     45  36  70 CALM      30.10F
MORRISTOWN     CLEAR     46  30  53 E3        30.12F
$$

TNZ083-085-099-020700-
SOUTHEAST TENNESSEE

CITY           SKY/WX    TMP DP  RH WIND       PRES   REMARKS
CHATTANOOGA    PTCLDY    55  44  66 CALM      30.08F
$$

SKY/WX REPORTED AS FAIR MEANS FEW OR NO CLOUDS BELOW
12 THOUSAND FEET.



USA.gov is the U.S. government's official web portal to all federal, state and local government web resources and services.